Location: Grange Verzio
(44.5000°N, 6.9833°E)
Time: 17:41:40
(UTC+00:00)

Cosmos 1461 - Pass Details

Date: 01 February 2023
Orbit: 492 x 643 km, 65.0° (Epoch: 29 March)

Event Time Altitude Azimuth Distance (km) Brightness Sun altitude
Rises 19:05:41 0° 230° (SW) 2,739 7.1 -26.0°
Reaches altitude 10° 19:07:55 10° 236° (WSW) 1,874 6.2 -26.4°
Maximum altitude 19:12:00 46° 311° (NW) 804 3.8 -27.1°
Enters shadow 19:12:06 46° 316° (NW) 806 3.8 -27.1°
